Location: *
(48.4333°N, 5.0333°W)
Time: 18:59:25
(UTC+00:00)

LilacSat-2 - Pass Details

Date: 31 October 2021
Orbit: 511 x 532 km, 97.5° (Epoch: 29 November)

Event Time Altitude Azimuth Distance (km) Brightness Sun altitude
Rises 06:09:29 0° 15° (NNE) 2,637 ? -9.6°
Reaches altitude 10° 06:11:36 10° 17° (NNE) 1,746 ? -9.3°
Maximum altitude 06:15:21 70° 102° (ESE) 551 ? -8.7°
Drops below altitude 10° 06:19:05 10° 187° (S) 1,738 ? -8.1°
Sets 06:21:10 0° 189° (S) 2,623 ? -7.7°
